Fergus Falls, MN

12:32 PM CST on December 08, 2019 (GMT -0600)
Fergus Falls Municipal-Mickelson

Weather History for KFFM - October, 2019

Change the Weather History Date:

Wednesday, October 2, 2019

  Actual Average Record
Temperature  
Mean Temperature 44 °F -  
Max Temperature 46 °F 64 °F 92 °F (1953)
Min Temperature 42 °F 39 °F 21 °F (1974)
Degree Days  
Heating Degree Days 21    
Moisture  
Dew Point 39 °F    
Average Humidity 81    
Maximum Humidity 100    
Minimum Humidity 76    
Precipitation  
Precipitation 0.04 in - - ()
Sea Level Pressure  
Sea Level Pressure 30.13 in    
Wind  
Wind Speed 7 mph ()    
Max Wind Speed 15 mph    
Max Gust Speed 21 mph    
Visibility 9.3 miles    
Events Rain , Thunderstorm    
Averages and records for this station are not official NWS values.
T = Trace of Precipitation, MM = Missing Value Source: Averaged Metar Reports

Daily Weather History Graph

Daily Weather History Graph

Search for Another Location

Airport or City:

Astronomy

Oct. 02, 2019 Rise Set
Actual Time 7:24 AM CDT 7:02 PM CDT
Civil Twilight 6:54 AM CDT 7:32 PM CDT
Nautical Twilight 6:19 AM CDT 8:07 PM CDT
Astronomical Twilight 5:43 AM CDT 8:42 PM CDT
Moon 12:05 PM CDT (10/2) 9:42 PM CDT (10/2)
Length of Visible Light 12h 38m
Length of Day
11h 38m
Waxing Crescent, 20% of the Moon is Illuminated
Oct 2
Waxing Crescent
Oct 5
First Quarter
Oct 13
Full
Oct 21
Last Quarter
Oct 27
New

Hourly Weather History & Observations

Time (CDT) Temp. Windchill Dew Point Humidity Pressure Visibility Wind Dir Wind Speed Gust Speed Precip Events Conditions
12:15 AM 42.8 °F 38.0 °F 37.4 °F 81% 30.16 in 10.0 mi NNE 8.1 mph - N/A   Overcast
12:16 AM 42.8 °F 37.5 °F 37.4 °F 81% 30.16 in 10.0 mi NE 9.2 mph - N/A   Overcast
12:35 AM 42.8 °F 37.5 °F 35.6 °F 76% 30.16 in 10.0 mi NE 9.2 mph - N/A   Overcast
12:58 AM 42.8 °F 37.0 °F 35.6 °F 76% 30.15 in 10.0 mi NE 10.4 mph 17.3 mph N/A   Overcast
1:16 AM 42.8 °F 38.0 °F 37.4 °F 81% 30.15 in 10.0 mi NE 8.1 mph - N/A   Overcast
1:35 AM 42.8 °F 38.6 °F 37.4 °F 81% 30.16 in 10.0 mi NE 6.9 mph - N/A   Overcast
1:36 AM 42.8 °F 38.6 °F 37.4 °F 81% 30.16 in 10.0 mi NE 6.9 mph - N/A   Overcast
1:55 AM 42.8 °F 38.6 °F 37.4 °F 81% 30.16 in 10.0 mi NE 6.9 mph - N/A   Overcast
2:15 AM 42.8 °F 37.5 °F 37.4 °F 81% 30.17 in 10.0 mi NE 9.2 mph - N/A   Overcast
2:19 AM 42.8 °F 36.2 °F 37.4 °F 81% 30.17 in 10.0 mi NE 12.7 mph 17.3 mph N/A   Overcast
2:38 AM 42.8 °F 38.0 °F 37.4 °F 81% 30.17 in 10.0 mi NE 8.1 mph - N/A   Overcast
2:55 AM 42.8 °F 36.2 °F 35.6 °F 76% 30.18 in 10.0 mi East 12.7 mph - N/A   Overcast
3:15 AM 42.8 °F 36.6 °F 35.6 °F 76% 30.18 in 10.0 mi ENE 11.5 mph - N/A   Overcast
3:16 AM 42.8 °F 36.6 °F 35.6 °F 76% 30.18 in 10.0 mi ENE 11.5 mph - N/A   Overcast
3:35 AM 42.8 °F 36.6 °F 35.6 °F 76% 30.18 in 10.0 mi ENE 11.5 mph 18.4 mph N/A   Overcast
3:36 AM 42.8 °F 36.2 °F 35.6 °F 76% 30.18 in 10.0 mi ENE 12.7 mph 18.4 mph N/A   Overcast
3:58 AM 42.8 °F 37.0 °F 35.6 °F 76% 30.18 in 10.0 mi ENE 10.4 mph - N/A   Overcast
4:17 AM 42.8 °F 38.6 °F 35.6 °F 76% 30.19 in 10.0 mi NE 6.9 mph - N/A   Overcast
4:36 AM 42.8 °F 41.1 °F 35.6 °F 76% 30.20 in 10.0 mi NE 3.5 mph - N/A   Overcast
4:55 AM 42.8 °F 38.6 °F 37.4 °F 81% 30.20 in 10.0 mi NNE 6.9 mph - N/A   Overcast
4:56 AM 42.8 °F 38.6 °F 37.4 °F 81% 30.20 in 10.0 mi NNE 6.9 mph - N/A   Overcast
5:15 AM 42.8 °F 38.0 °F 35.6 °F 76% 30.20 in 10.0 mi NE 8.1 mph - N/A   Overcast
5:37 AM 42.8 °F 37.5 °F 35.6 °F 76% 30.19 in 10.0 mi NE 9.2 mph - N/A   Overcast
5:55 AM 42.8 °F 37.5 °F 35.6 °F 76% 30.19 in 10.0 mi NE 9.2 mph - N/A   Overcast
6:15 AM 42.8 °F 39.3 °F 37.4 °F 81% 30.19 in 10.0 mi NE 5.8 mph - N/A   Overcast
6:16 AM 42.8 °F 39.3 °F 37.4 °F 81% 30.19 in 10.0 mi NE 5.8 mph - N/A   Overcast
6:35 AM 42.8 °F 40.1 °F 37.4 °F 81% 30.19 in 10.0 mi NE 4.6 mph - N/A   Overcast
6:36 AM 42.8 °F 40.1 °F 37.4 °F 81% 30.19 in 10.0 mi NE 4.6 mph - N/A   Overcast
6:58 AM 42.8 °F 38.0 °F 37.4 °F 81% 30.18 in 10.0 mi ENE 8.1 mph - N/A   Overcast
7:17 AM 42.8 °F 38.0 °F 37.4 °F 81% 30.17 in 10.0 mi ENE 8.1 mph - N/A   Overcast
7:36 AM 42.8 °F 38.6 °F 37.4 °F 81% 30.17 in 10.0 mi ENE 6.9 mph - N/A   Overcast
7:55 AM 44.6 °F 40.2 °F 37.4 °F 76% 30.18 in 10.0 mi ENE 8.1 mph 17.3 mph N/A   Overcast
7:56 AM 44.6 °F 39.7 °F 37.4 °F 76% 30.18 in 10.0 mi ENE 9.2 mph 17.3 mph N/A   Overcast
8:15 AM 42.8 °F 37.5 °F 37.4 °F 81% 30.19 in 10.0 mi ENE 9.2 mph - N/A   Overcast
8:19 AM 42.8 °F 40.1 °F 37.4 °F 81% 30.19 in 10.0 mi East 4.6 mph - N/A   Overcast
8:37 AM 44.6 °F 41.4 °F 37.4 °F 76% 30.19 in 10.0 mi East 5.8 mph - N/A   Overcast
8:55 AM 44.6 °F 38.8 °F 37.4 °F 76% 30.16 in - ENE 11.5 mph 16.1 mph N/A   Overcast
9:15 AM 42.8 °F 36.6 °F 37.4 °F 81% 30.14 in 10.0 mi East 11.5 mph 16.1 mph N/A   Unknown
9:16 AM 42.8 °F 37.0 °F 37.4 °F 81% 30.14 in 10.0 mi East 10.4 mph 16.1 mph N/A   Unknown
9:35 AM 44.6 °F 38.8 °F 37.4 °F 76% 30.14 in 10.0 mi ENE 11.5 mph 20.7 mph N/A   Overcast
9:36 AM 44.6 °F 39.2 °F 37.4 °F 76% 30.14 in 10.0 mi ENE 10.4 mph - N/A   Overcast
9:58 AM 44.6 °F 40.7 °F 37.4 °F 76% 30.16 in 10.0 mi ENE 6.9 mph - N/A   Overcast
10:16 AM 44.6 °F 41.4 °F 37.4 °F 76% 30.18 in 10.0 mi ENE 5.8 mph - N/A   Overcast
10:35 AM 44.6 °F 43.1 °F 37.4 °F 76% 30.18 in 10.0 mi ENE 3.5 mph - N/A   Overcast
10:36 AM 44.6 °F 43.1 °F 37.4 °F 76% 30.18 in 10.0 mi NE 3.5 mph - N/A   Overcast
10:55 AM 44.6 °F 42.2 °F 37.4 °F 76% 30.17 in 10.0 mi NNE 4.6 mph - N/A   Overcast
10:56 AM 44.6 °F 43.1 °F 37.4 °F 76% 30.17 in 10.0 mi NNE 3.5 mph - N/A   Overcast
11:15 AM 44.6 °F 42.2 °F 37.4 °F 76% 30.16 in 10.0 mi NE 4.6 mph - N/A   Overcast
11:19 AM 44.6 °F 42.2 °F 37.4 °F 76% 30.17 in 10.0 mi North 4.6 mph - N/A   Overcast
11:38 AM 44.6 °F 41.4 °F 37.4 °F 76% 30.16 in 10.0 mi NE 5.8 mph - N/A   Overcast
11:55 AM 44.6 °F 41.4 °F 37.4 °F 76% 30.16 in 10.0 mi ENE 5.8 mph - N/A   Overcast
12:15 PM 44.6 °F 40.7 °F 37.4 °F 76% 30.15 in 10.0 mi NE 6.9 mph - N/A   Overcast
12:16 PM 44.6 °F 40.7 °F 37.4 °F 76% 30.15 in 10.0 mi NE 6.9 mph - N/A   Overcast
12:43 PM 46.4 °F 44.3 °F 39.2 °F 76% 30.16 in 10.0 mi ENE 4.6 mph - N/A   Overcast
12:52 PM 46.4 °F 43.5 °F 39.2 °F 76% 30.15 in 10.0 mi ENE 5.8 mph - N/A   Overcast
12:55 PM 46.4 °F 42.9 °F 39.2 °F 76% 30.15 in 10.0 mi NE 6.9 mph - N/A   Overcast
12:59 PM 46.4 °F 41.9 °F 39.2 °F 76% 30.14 in 10.0 mi NE 9.2 mph - N/A   Overcast
1:16 PM 46.4 °F 41.1 °F 39.2 °F 76% 30.11 in 10.0 mi ENE 11.5 mph 16.1 mph N/A   Overcast
1:36 PM 46.4 °F 40.1 °F 39.2 °F 76% 30.09 in 10.0 mi ENE 15.0 mph 18.4 mph N/A   Mostly Cloudy
1:55 PM 46.4 °F 41.9 °F 39.2 °F 76% 30.08 in 10.0 mi ENE 9.2 mph 18.4 mph N/A   Mostly Cloudy
1:56 PM 46.4 °F 42.4 °F 39.2 °F 76% 30.08 in 10.0 mi ENE 8.1 mph 18.4 mph N/A   Mostly Cloudy
2:15 PM 46.4 °F 41.1 °F 39.2 °F 76% 30.09 in 10.0 mi East 11.5 mph 16.1 mph N/A   Overcast
2:19 PM 46.4 °F 41.5 °F 39.2 °F 76% 30.09 in 10.0 mi ENE 10.4 mph 16.1 mph N/A   Overcast
2:38 PM 46.4 °F 41.9 °F 39.2 °F 76% 30.09 in 10.0 mi ENE 9.2 mph - N/A   Overcast
2:55 PM 46.4 °F 44.3 °F 39.2 °F 76% 30.10 in 10.0 mi ENE 4.6 mph - N/A   Overcast
3:15 PM 46.4 °F 42.9 °F 39.2 °F 76% 30.09 in 10.0 mi ENE 6.9 mph - N/A   Overcast
3:16 PM 46.4 °F 42.9 °F 39.2 °F 76% 30.09 in 10.0 mi ENE 6.9 mph - N/A   Overcast
3:35 PM 46.4 °F 41.9 °F 39.2 °F 76% 30.08 in 10.0 mi East 9.2 mph - N/A   Overcast
3:36 PM 46.4 °F 41.9 °F 39.2 °F 76% 30.08 in 10.0 mi East 9.2 mph - N/A   Overcast
3:58 PM 46.4 °F 43.5 °F 39.2 °F 76% 30.09 in 10.0 mi East 5.8 mph - N/A   Overcast
4:16 PM 46.4 °F 45.2 °F 39.2 °F 76% 30.08 in 10.0 mi East 3.5 mph - N/A   Overcast
4:36 PM 46.4 °F 43.5 °F 39.2 °F 76% 30.07 in 10.0 mi NE 5.8 mph - N/A   Overcast
4:55 PM 46.4 °F 43.5 °F 39.2 °F 76% 30.06 in 10.0 mi NE 5.8 mph - N/A   Overcast
4:56 PM 46.4 °F 44.3 °F 39.2 °F 76% 30.06 in 10.0 mi NE 4.6 mph - N/A   Overcast
5:15 PM 46.4 °F 43.5 °F 41.0 °F 81% 30.07 in 10.0 mi ENE 5.8 mph - N/A   Overcast
5:37 PM 46.4 °F 45.2 °F 41.0 °F 81% 30.08 in 10.0 mi NE 3.5 mph - N/A   Overcast
5:55 PM 46.4 °F 43.5 °F 41.0 °F 81% 30.07 in 10.0 mi NE 5.8 mph - N/A   Overcast
6:15 PM 46.4 °F 43.5 °F 41.0 °F 81% 30.06 in 10.0 mi NNE 5.8 mph - N/A   Overcast
6:16 PM 46.4 °F 42.9 °F 41.0 °F 81% 30.06 in 10.0 mi NNE 6.9 mph - N/A   Overcast
6:35 PM 44.6 °F 42.2 °F 41.0 °F 87% 30.08 in 10.0 mi NNE 4.6 mph - N/A   Light Drizzle
6:36 PM 44.6 °F 42.2 °F 41.0 °F 87% 30.07 in 10.0 mi NNE 4.6 mph - N/A   Light Drizzle
6:59 PM 44.6 °F 41.4 °F 42.8 °F 93% 30.07 in 4.0 mi North 5.8 mph - N/A   Light Drizzle
7:16 PM 44.6 °F 41.4 °F 42.8 °F 93% 30.07 in 3.0 mi North 5.8 mph - 0.01 in   Light Drizzle
7:36 PM 44.6 °F 42.2 °F 42.8 °F 93% 30.08 in 5.0 mi North 4.6 mph - 0.01 in   Light Drizzle
7:55 PM 44.6 °F 41.4 °F 42.8 °F 93% 30.08 in 4.0 mi North 5.8 mph - N/A Rain Light Rain
7:56 PM 44.6 °F 41.4 °F 42.8 °F 93% 30.08 in 4.0 mi North 5.8 mph - N/A Rain Light Rain
8:15 PM 44.6 °F 41.4 °F 42.8 °F 93% 30.09 in 5.0 mi NE 5.8 mph - 0.01 in Rain , Thunderstorm Light Thunderstorms and Rain
8:19 PM 44.6 °F 40.2 °F 42.8 °F 93% 30.09 in 5.0 mi NE 8.1 mph - 0.01 in Rain , Thunderstorm Light Thunderstorms and Rain
8:38 PM 44.6 °F 42.2 °F 42.8 °F 93% 30.09 in 4.0 mi East 4.6 mph - N/A Rain Light Rain
8:55 PM 44.6 °F 41.4 °F 42.8 °F 93% 30.08 in 4.0 mi NE 5.8 mph - N/A Rain Light Rain
9:15 PM 44.6 °F 41.4 °F 42.8 °F 93% 30.08 in 7.0 mi East 5.8 mph - 0.01 in Rain Light Rain
9:16 PM 44.6 °F 41.4 °F 42.8 °F 93% 30.08 in 7.0 mi East 5.8 mph - 0.01 in Rain Light Rain
9:35 PM 44.6 °F 42.2 °F 42.8 °F 93% 30.08 in 10.0 mi ENE 4.6 mph - 0.01 in Rain Light Rain
9:58 PM 44.6 °F 42.2 °F 42.8 °F 93% 30.08 in 7.0 mi ENE 4.6 mph - N/A   Overcast
10:17 PM 44.6 °F 41.4 °F 42.8 °F 93% 30.08 in 7.0 mi ENE 5.8 mph - 0.01 in Rain Light Rain
10:36 PM 42.8 °F 41.1 °F 42.8 °F 100% 30.07 in 10.0 mi NE 3.5 mph - 0.01 in   Light Drizzle
10:55 PM 42.8 °F 39.3 °F 41.0 °F 93% 30.07 in 7.0 mi NE 5.8 mph - 0.01 in   Overcast
10:56 PM 42.8 °F 40.1 °F 41.0 °F 93% 30.07 in 7.0 mi NE 4.6 mph - N/A   Overcast
11:15 PM 42.8 °F 39.3 °F 41.0 °F 93% 30.07 in 10.0 mi NE 5.8 mph - N/A   Light Drizzle
11:37 PM 42.8 °F 41.1 °F 41.0 °F 93% 30.07 in 10.0 mi NE 3.5 mph - N/A   Overcast
11:56 PM 42.8 °F 41.1 °F 41.0 °F 93% 30.07 in 10.0 mi NE 3.5 mph - N/A   Overcast